NIMBUS 6

Satellite information

Favourite Embed

Satellite Type and Status

PAYLOADIN ORBIT

Key statistics

Satellite NIMBUS 6 at a glance.

Uptime

18447

Days in orbit

Revolutions

≈ 13.4

Per day

Orbit

SSO

Sun Synchronous Orbit

Inclination

100.0

Latest

Satellite identification and parameters

Extended collection of information and parameters for NIMBUS 6.

Object identification

Identified? True

Debris? False

Object name: NIMBUS 6

International designator: 1975-052A

Object number (NORAD): 7924

Object ID (CCSDS): 7924

Country: UNITED STATES OF AMERICA (US)

Current information (Y/N): Y

RCS size: LARGE

Orbital parameters

Period: 107.397 minutes

Inclination: 100.0089 deg

SMA: 7484.382 km

Apoapsis: 1111.856 km

Periapsis: 1100.639 km

RAAN: 255.7521 deg

Eccentricy: 0.00074937

Argument of periapsis: 318.8471 deg

Mean anomaly: 151.9292 deg

Mean motion: 13.40814932 rev/day

Mean motion (dot): -0.00000009 rev/day2

B* drag term: 0.000064752978 1/REarth

Two-line elements (TLE)

Creation date: Dec. 12, 2025, 10:14 a.m.

Reference frame: TEME

Reference center: EARTH

Epoch: Dec. 12, 2025, 6:49 a.m. UTC

TLE line 0: 0 NIMBUS 6

TLE line 1: 1 07924U 75052A 25346.28446521 -.00000009 00000-0 64753-4 0 9992

TLE line 2: 2 07924 100.0089 255.7521 0007494 318.8471 151.9292 13.40814932471089

Live tracking on map

Real-time ground track for satellite NIMBUS 6.

In-orbit conjunctions

A list of the most updated potential collisions computed for object NIMBUS 6.

Target Orbit TCA Probability of collision Miss distance Type
DELTA 1 DEB SSO 2025-01-05 15:31:04 0.001147045 41.0 (m) DEBRIS

Associated space launch

Experimental meteorological satellite

NIMBUS 6 was lifted into orbit during the mission ‘Delta 2910 | Nimbus 6’, on board a Delta 2910 space rocket.

The launch took place on June 12, 1975, 8:12 a.m. from Space Launch Complex 2W.

For more information about the launch, click the button.

Launch to space Delta 2910 | Nimbus 6
Delta 2910 | Nimbus 6

Agency: N/A

Status: Launch Successful

Launch date: June 12, 1975, 8:12 a.m. UTC

Rocket: Delta 2910

Launch pad: Space Launch Complex 2W

Location: Vandenberg SFB, CA, USA

...

Latest news about this satellite

There are no fresh news available about this satellite. Check back as we update our databases every day.


Newsletter sign-up

Weekly statistics, charts and insights to help you stay on top of the space industry.